Location: Unspecified
(22.6800°N, 112.2000°E)
Time: 21:37:00
(UTC+08:00)

Transit 4A - Pass Details

Date: 09 August 2021
Orbit: 871 x 974 km, 66.8° (Epoch: 21 September)

Event Time Altitude Azimuth Distance (km) Brightness Sun altitude
Exits shadow 21:33:13 17° 32° (NNE) 2,097 9.8 -31.0°
Drops below altitude 10° 21:34:23 10° 30° (NNE) 2,526 10.2 -31.2°
Sets 21:36:52 0° 27° (NNE) 3,460 11.0 -31.6°
